(124303) = 2000 DE92 = 2001 QR63

Discovered at Socorro on 2001-08-16 by LINEAR.

Orbit

Orbit type: Main Belt

Note: WebGL enabled browser required.

epoch2024-03-31.0
epoch JD2460400.5
perihelion date2022-09-13.40270
perihelion JD2459835.90270
argument of perihelion (°)154.25437
ascending node (°)174.72888
inclination (°)1.99930
eccentricity0.1707439
perihelion distance (AU)1.9199733
Tisserand w.r.t. Jupiter3.6
ΔV w.r.t. Earth (km/sec)8.6
semimajor axis (AU)2.3152959
mean anomaly (°)157.95483
mean daily motion (°/day)0.27976550
aphelion distance (AU)2.711
period (years)3.52
P-vector [x]0.85704095
P-vector [y]-0.47855458
P-vector [z]-0.19096160
Q-vector [x]0.51523834
Q-vector [y]0.79829626
Q-vector [z]0.31185340
absolute magnitude16.85
phase slope0.15
uncertainty0
referenceMPEC 2024-C93
observations used846
oppositions18
arc length (days)10741
first opposition used1994
last opposition used2024
residual rms (arc-secs)0.68
perturbers coarse indicatorM-v
perturbers precise indicator003Ek
first observation date used1994-09-12.0
last observation date used2024-02-08.0
computer nameMPCLINUX
JD of orbit computation2456937.480884
perihelion JD uncertainty (days)4.1294E-05
argument of perihelion uncertainty (°)8.0839E-05
ascending node uncertainty (°)8.0206E-05
inclination uncertainty (°)4.0623E-06
eccentricity uncertainty 3.4376E-08
perihelion distance uncertainty (AU)7.9627E-08
Minimum Orbit Intersection Distances (in AU)
for orbit epoch: 2460200.5, reference: E2024-C93
Mercury1.51158
Venus1.19515
Earth0.90862
Mars0.54302
Jupiter2.61536
Saturn6.47069
Uranus15.7481
Neptune27.5685

Observations

870 total observations over interval: 1994 09 12.39543 – 2024 02 08.297345
These data are available for download (format description).

Date (UT) J2000 RA J2000 Dec Magn Location Ref
1994 09 12.39543 00 26 13.06 +02 35 46.9 18.9 V 691 – Steward Observatory, Kitt Peak-Spacewatch MPS 34657
1994 09 12.41785 00 26 12.02 +02 35 37.9   691 – Steward Observatory, Kitt Peak-Spacewatch MPS 34657
2000 02 27.42889 12 27 28.77 -02 51 38.4 20.3 V 691 – Steward Observatory, Kitt Peak-Spacewatch MPS 11306
2000 02 27.45349 12 27 27.78 -02 51 31.4 20.6 V 691 – Steward Observatory, Kitt Peak-Spacewatch MPS 11306
2000 02 27.47596 12 27 26.92 -02 51 25.2 20.7 V 691 – Steward Observatory, Kitt Peak-Spacewatch MPS 11306
2000 03 03.443660 12 24 05.113 -02 25 53.98 20.76 V 645 – Apache Point-Sloan Digital Sky Survey MPS 79879
2000 03 03.447132 12 24 04.958 -02 25 52.84 21.61   645 – Apache Point-Sloan Digital Sky Survey MPS 79879
2000 03 03.46970 12 24 03.92 -02 25 45.3 21.1 V 691 – Steward Observatory, Kitt Peak-Spacewatch MPS 11306
2000 03 03.49097 12 24 03.00 -02 25 38.8 20.4 V 691 – Steward Observatory, Kitt Peak-Spacewatch MPS 11306
2000 03 03.51230 12 24 01.99 -02 25 30.7 21.1 V 691 – Steward Observatory, Kitt Peak-Spacewatch MPS 11306
2000 04 24.17788 11 42 02.68 +02 44 11.8 21.2 V 691 – Steward Observatory, Kitt Peak-Spacewatch MPS 34196
2000 04 24.20703 11 42 01.77 +02 44 18.2 21.2 V 691 – Steward Observatory, Kitt Peak-Spacewatch MPS 34196
2000 04 24.23592 11 42 00.89 +02 44 24.7 21.3 V 691 – Steward Observatory, Kitt Peak-Spacewatch MPS 34196
2000 05 04.255230 11 38 32.543 +03 11 29.98 21.23 V 645 – Apache Point-Sloan Digital Sky Survey MPS 79879
2000 05 04.258702 11 38 32.492 +03 11 30.31 22.07   645 – Apache Point-Sloan Digital Sky Survey MPS 79879
2001 07 19.37796 23 45 09.47 -00 06 22.4 19.5 R 699 – Lowell Observatory-LONEOS MPS 34657
2001 07 19.39679 23 45 10.08 -00 06 17.5   699 – Lowell Observatory-LONEOS MPS 34657
2001 07 19.41562 23 45 10.67 -00 06 13.1   699 – Lowell Observatory-LONEOS MPS 34657
2001 07 19.43448 23 45 11.41 -00 06 09.2   699 – Lowell Observatory-LONEOS MPS 34657
2001 07 25.38044 23 48 14.17 +00 09 14.6 20.2 V 691 – Steward Observatory, Kitt Peak-Spacewatch MPS 34657
2001 07 25.40183 23 48 14.65 +00 09 17.1 20.2 V 691 – Steward Observatory, Kitt Peak-Spacewatch MPS 34657
2001 07 25.42338 23 48 15.16 +00 09 19.5 19.8 V 691 – Steward Observatory, Kitt Peak-Spacewatch MPS 34657
2001 08 16.33213 23 49 50.88 -00 03 39.7 19.2   704 – Lincoln Laboratory ETS, New Mexico MPS 33594
2001 08 16.34414 23 49 50.63 -00 03 43.6 19.8   704 – Lincoln Laboratory ETS, New Mexico MPS 33594
2001 08 16.35616 23 49 50.41 -00 03 44.3 20.4   704 – Lincoln Laboratory ETS, New Mexico MPS 33594
2001 08 16.36822 23 49 50.16 -00 03 47.0 19.8   704 – Lincoln Laboratory ETS, New Mexico MPS 33594
2001 08 16.38028 23 49 49.88 -00 03 50.1 20.0   704 – Lincoln Laboratory ETS, New Mexico MPS 33594
2001 08 20.27754 23 48 28.91 -00 17 53.7 17.3 R 807 – Cerro Tololo Observatory, La Serena MPS 37769
2001 08 20.35799 23 48 27.00 -00 18 22.5 19.3   704 – Lincoln Laboratory ETS, New Mexico MPS 33594
2001 08 20.36390 23 48 26.53 -00 18 14.9   807 – Cerro Tololo Observatory, La Serena MPS 37769
2001 08 20.37044 23 48 26.67 -00 18 25.8 19.1   704 – Lincoln Laboratory ETS, New Mexico MPS 33594
2001 08 20.38292 23 48 26.28 -00 18 28.3 19.2   704 – Lincoln Laboratory ETS, New Mexico MPS 33594
2001 08 23.36366 23 47 05.58 -00 31 40.9 18.5 R 699 – Lowell Observatory-LONEOS MPS 33594
2001 08 23.37935 23 47 05.02 -00 31 45.3   699 – Lowell Observatory-LONEOS MPS 33594
2001 08 23.39505 23 47 04.49 -00 31 50.0   699 – Lowell Observatory-LONEOS MPS 33594
2001 08 23.41076 23 47 03.91 -00 31 54.4   699 – Lowell Observatory-LONEOS MPS 33594
2001 08 24.34577 23 46 35.65 -00 36 25.2 18.8   704 – Lincoln Laboratory ETS, New Mexico MPS 33594
2001 08 24.37197 23 46 34.75 -00 36 33.4 19.7   704 – Lincoln Laboratory ETS, New Mexico MPS 33594
2001 08 24.39822 23 46 33.82 -00 36 41.2 19.2   704 – Lincoln Laboratory ETS, New Mexico MPS 33594
2001 09 07.23026 23 37 16.55 -02 00 17.2 19.0   704 – Lincoln Laboratory ETS, New Mexico MPS 34657
2001 09 07.24411 23 37 15.82 -02 00 23.5 18.3   704 – Lincoln Laboratory ETS, New Mexico MPS 34657
2001 09 07.25800 23 37 15.18 -02 00 29.0 18.6   704 – Lincoln Laboratory ETS, New Mexico MPS 34657
2001 09 07.38791 23 37 08.67 -02 01 22.9 18.0 R 699 – Lowell Observatory-LONEOS MPS 34657
2001 09 07.40055 23 37 08.04 -02 01 28.8   699 – Lowell Observatory-LONEOS MPS 34657
2001 09 07.41306 23 37 07.36 -02 01 32.7   699 – Lowell Observatory-LONEOS MPS 34657
2001 09 07.42552 23 37 06.75 -02 01 37.9   699 – Lowell Observatory-LONEOS MPS 34657
2001 09 08.25817 23 36 27.77 -02 07 24.0 18.8   704 – Lincoln Laboratory ETS, New Mexico MPS 34657
2001 09 08.27195 23 36 26.98 -02 07 30.2 19.2   704 – Lincoln Laboratory ETS, New Mexico MPS 34657
2001 09 08.28593 23 36 26.33 -02 07 36.3 19.0   704 – Lincoln Laboratory ETS, New Mexico MPS 34657
2001 09 08.29972 23 36 25.61 -02 07 41.3 19.1   704 – Lincoln Laboratory ETS, New Mexico MPS 34657
2001 09 08.31351 23 36 24.91 -02 07 48.1 19.3   704 – Lincoln Laboratory ETS, New Mexico MPS 34657
2001 09 12.33400 23 33 09.40 -02 36 06.2 18.2   704 – Lincoln Laboratory ETS, New Mexico MPS 34657
2001 09 12.34815 23 33 08.66 -02 36 12.4 18.4   704 – Lincoln Laboratory ETS, New Mexico MPS 34657
2001 09 12.36227 23 33 07.92 -02 36 18.4 18.4   704 – Lincoln Laboratory ETS, New Mexico MPS 34657
2001 09 12.37639 23 33 07.20 -02 36 24.1 18.7   704 – Lincoln Laboratory ETS, New Mexico MPS 34657
2001 09 12.39050 23 33 06.43 -02 36 30.8 18.3   704 – Lincoln Laboratory ETS, New Mexico MPS 34657
2001 09 18.24451 23 28 19.34 -03 18 04.0 18.6 V 691 – Steward Observatory, Kitt Peak-Spacewatch MPS 35975
2001 09 18.26561 23 28 18.25 -03 18 12.9 18.6 V 691 – Steward Observatory, Kitt Peak-Spacewatch MPS 35975
2001 09 18.28657 23 28 17.17 -03 18 21.7 18.6 V 691 – Steward Observatory, Kitt Peak-Spacewatch MPS 35975
2001 09 19.16238 23 27 35.24 -03 24 28.7 18.2 R 699 – Lowell Observatory-LONEOS MPS 35975
2001 09 19.18113 23 27 34.25 -03 24 37.1   699 – Lowell Observatory-LONEOS MPS 35975
2001 09 19.19989 23 27 33.33 -03 24 44.6   699 – Lowell Observatory-LONEOS MPS 35975
2001 09 19.21872 23 27 32.35 -03 24 52.8   699 – Lowell Observatory-LONEOS MPS 35975
2001 09 19.25153 23 27 30.67 -03 25 06.8 18.2   704 – Lincoln Laboratory ETS, New Mexico MPS 35975
2001 09 19.26567 23 27 29.92 -03 25 12.6 18.6   704 – Lincoln Laboratory ETS, New Mexico MPS 35975
2001 09 19.27994 23 27 29.21 -03 25 18.7 18.4   704 – Lincoln Laboratory ETS, New Mexico MPS 35975
2001 09 19.29407 23 27 28.46 -03 25 24.3 18.3   704 – Lincoln Laboratory ETS, New Mexico MPS 35975
2001 09 19.30820 23 27 27.73 -03 25 30.2 18.6   704 – Lincoln Laboratory ETS, New Mexico MPS 35975
2001 09 21.24361 23 25 56.15 -03 38 49.4 18.1   704 – Lincoln Laboratory ETS, New Mexico MPS 35975
2001 09 21.25150 23 25 55.79 -03 38 52.1 18.1   704 – Lincoln Laboratory ETS, New Mexico MPS 35975
2001 09 21.25175 23 25 55.77 -03 38 51.9 18.7   704 – Lincoln Laboratory ETS, New Mexico MPS 35975
2001 09 21.25866 23 25 55.41 -03 38 55.1 18.6   704 – Lincoln Laboratory ETS, New Mexico MPS 35975
2001 09 21.26564 23 25 55.10 -03 38 57.7 18.1   704 – Lincoln Laboratory ETS, New Mexico MPS 35975
2001 09 21.26589 23 25 55.06 -03 38 57.9 18.7   704 – Lincoln Laboratory ETS, New Mexico MPS 35975
2001 09 21.27312 23 25 54.67 -03 39 00.6 18.5   704 – Lincoln Laboratory ETS, New Mexico MPS 35975
2001 09 21.27978 23 25 54.38 -03 39 03.5 18.4   704 – Lincoln Laboratory ETS, New Mexico MPS 35975
2001 09 21.28003 23 25 54.33 -03 39 03.6 18.8   704 – Lincoln Laboratory ETS, New Mexico MPS 35975
2001 09 21.28816 23 25 53.94 -03 39 07.1 18.7   704 – Lincoln Laboratory ETS, New Mexico MPS 35975
2001 09 21.29393 23 25 53.68 -03 39 08.7 18.3   704 – Lincoln Laboratory ETS, New Mexico MPS 35975
2001 09 21.29418 23 25 53.62 -03 39 08.6 18.7   704 – Lincoln Laboratory ETS, New Mexico MPS 35975
2001 09 21.30274 23 25 53.20 -03 39 12.8 18.8   704 – Lincoln Laboratory ETS, New Mexico MPS 35975
2001 09 21.30808 23 25 52.98 -03 39 14.7 18.4   704 – Lincoln Laboratory ETS, New Mexico MPS 35975
2001 09 26.22718 23 22 13.49 -04 11 26.6 18.4 R 699 – Lowell Observatory-LONEOS MPS 35975
